Chambery, France

7:10 PM CET on November 18, 2017 (GMT +0100)
Aix-les-Bains

Weather History for LFLB - March, 2013

Change the Weather History Date:

Wednesday, March 6, 2013

  Actual Average Record
Temperature  
Mean Temperature 43 °F -  
Max Temperature 53 °F 55 °F 59 °F (1998)
Min Temperature 33 °F 36 °F 24 °F (2006)
Degree Days  
Heating Degree Days 22    
Moisture  
Dew Point 35 °F    
Average Humidity 67    
Maximum Humidity 93    
Minimum Humidity 44    
Precipitation  
Precipitation 0.00 in - - ()
Sea Level Pressure  
Sea Level Pressure 29.55 in    
Wind  
Wind Speed 3 mph ()    
Max Wind Speed 7 mph    
Max Gust Speed -    
Visibility 5.2 miles    
Events      
Averages and records for this station are not official NWS values.
T = Trace of Precipitation, MM = Missing Value Source: Averaged Metar Reports

Daily Weather History Graph

Daily Weather History Graph

Search for Another Location

Airport or City:

Trip Planner

Search our weather history database for the weather conditions in past years. The results will help you decide how hot, cold, wet, or windy it might be!

Date:

Astronomy

Mar. 06, 2013 Rise Set
Actual Time 7:05 AM CET 6:30 PM CET
Civil Twilight 6:36 AM CET 6:59 PM CET
Nautical Twilight 6:01 AM CET 7:34 PM CET
Astronomical Twilight 5:27 AM CET 8:09 PM CET
Moon 3:13 AM CET (3/6) 12:42 PM CET (3/6)
Length of Visible Light 12h 23m
Length of Day
11h 24m
Waning Crescent, 33% of the Moon is Illuminated
Mar 6
Waning Crescent
Mar 11
New
Mar 19
First Quarter
Mar 27
Full
Apr 3
Last Quarter

Hourly Weather History & Observations

Time (CET) Temp. Windchill Dew Point Humidity Pressure Visibility Wind Dir Wind Speed Gust Speed Precip Events Conditions
12:00 AM 33.8 °F 29.6 °F 32.0 °F 93% 29.68 in 3.7 mi SSW 4.6 mph - N/A   Unknown
12:30 AM 35.6 °F 32.8 °F 32.0 °F 87% 29.68 in 3.7 mi South 3.5 mph - N/A   Unknown
1:00 AM 35.6 °F - 32.0 °F 87% 29.68 in - Variable 1.2 mph - N/A   Mist
1:30 AM 37.4 °F 34.9 °F 32.0 °F 81% 29.68 in 2.8 mi Variable 3.5 mph - N/A   Mist
2:00 AM 37.4 °F - 32.0 °F 81% 29.68 in 3.1 mi Calm Calm - N/A   Mist
2:30 AM 37.4 °F 34.9 °F 33.8 °F 87% 29.65 in 5.0 mi Variable 3.5 mph - N/A   Unknown
3:00 AM 39.2 °F 37.0 °F 33.8 °F 81% 29.65 in 3.7 mi Variable 3.5 mph - N/A   Unknown
3:30 AM 39.2 °F - 33.8 °F 81% 29.65 in 4.3 mi Calm Calm - N/A   Unknown
4:00 AM 39.2 °F 37.0 °F 33.8 °F 81% 29.62 in 3.1 mi Variable 3.5 mph - N/A   Mist
4:30 AM 39.2 °F - 33.8 °F 81% 29.62 in 5.6 mi Variable 2.3 mph - N/A   Unknown
5:00 AM 39.2 °F - 33.8 °F 81% 29.59 in 5.0 mi East 1.2 mph - N/A   Overcast
5:30 AM 41.0 °F - 33.8 °F 76% 29.59 in 6.2 mi Calm Calm - N/A   Overcast
6:00 AM 41.0 °F - 33.8 °F 76% 29.59 in 5.6 mi Variable 1.2 mph - N/A   Overcast
6:30 AM 41.0 °F 39.0 °F 33.8 °F 76% 29.56 in 5.6 mi West 3.5 mph - N/A   Overcast
7:00 AM 46.4 °F 43.5 °F 32.0 °F 57% 29.56 in 5.6 mi NNW 5.8 mph - N/A   Unknown
7:30 AM 46.4 °F 42.9 °F 32.0 °F 57% 29.53 in - NNW 6.9 mph - N/A   Clear
8:00 AM 46.4 °F 44.3 °F 32.0 °F 57% 29.56 in 6.2 mi WNW 4.6 mph - N/A   Mostly Cloudy
8:30 AM 44.6 °F - 33.8 °F 66% 29.56 in 6.2 mi Calm Calm - N/A   Overcast
9:00 AM 44.6 °F 43.1 °F 33.8 °F 66% 29.56 in 6.2 mi Variable 3.5 mph - N/A   Overcast
9:30 AM 44.6 °F - 35.6 °F 71% 29.56 in 6.2 mi SSE 2.3 mph - N/A   Overcast
10:00 AM 46.4 °F - 35.6 °F 66% 29.56 in - Variable 2.3 mph - N/A   Clear
10:30 AM 48.2 °F - 35.6 °F 62% 29.56 in - SW 3.5 mph - N/A   Clear
11:00 AM 50.0 °F - 35.6 °F 58% 29.53 in - SSE 1.2 mph - N/A   Clear
11:30 AM 50.0 °F - 33.8 °F 54% 29.53 in - Variable 2.3 mph - N/A   Clear
12:00 PM 51.8 °F - 32.0 °F 47% 29.53 in - Variable 3.5 mph - N/A   Clear
12:30 PM 53.6 °F - 32.0 °F 44% 29.50 in - Variable 3.5 mph - N/A   Clear
1:05 PM 53.6 °F - 33.8 °F 47% 29.50 in - North 4.6 mph - N/A   Clear
1:30 PM 53.6 °F - 33.8 °F 47% 29.50 in - NNW 3.5 mph - N/A   Clear
2:00 PM 53.6 °F - 33.8 °F 47% 29.47 in - Variable 2.3 mph - N/A   Clear
2:30 PM 51.8 °F - 33.8 °F 50% 29.47 in - Variable 3.5 mph - N/A   Clear
3:06 PM 51.8 °F - 37.4 °F 58% 29.47 in - Variable 2.3 mph - N/A   Clear
3:30 PM 53.6 °F - 35.6 °F 51% 29.47 in - NNW 3.5 mph - N/A   Clear
4:19 PM 53.6 °F - 35.6 °F 51% 29.47 in - NNW 3.5 mph - N/A   Clear
4:30 PM 53.6 °F - 35.6 °F 51% 29.47 in - NNW 4.6 mph - N/A   Clear
5:00 PM 53.6 °F - 35.6 °F 51% 29.47 in - Variable 3.5 mph - N/A   Clear
5:30 PM 53.6 °F - 35.6 °F 51% 29.47 in - Variable 2.3 mph - N/A   Clear
6:00 PM 53.6 °F - 35.6 °F 51% 29.47 in - NW 4.6 mph - N/A   Clear
6:30 PM 50.0 °F - 35.6 °F 58% 29.47 in 6.2 mi West 3.5 mph - N/A   Unknown
7:00 PM 48.2 °F - 35.6 °F 62% 29.50 in 6.2 mi Variable 2.3 mph - N/A   Unknown
7:30 PM 46.4 °F - 35.6 °F 66% 29.50 in 6.2 mi Calm Calm - N/A   Unknown
8:00 PM 46.4 °F 45.2 °F 37.4 °F 71% 29.50 in 6.2 mi NNW 3.5 mph - N/A   Unknown
8:30 PM 46.4 °F 43.5 °F 39.2 °F 76% 29.53 in 6.2 mi North 5.8 mph - N/A   Unknown
9:00 PM 46.4 °F - 39.2 °F 76% 29.53 in 5.6 mi Variable 2.3 mph - N/A   Unknown
9:30 PM 46.4 °F 45.2 °F 39.2 °F 76% 29.53 in 5.0 mi Variable 3.5 mph - N/A   Unknown
10:00 PM 44.6 °F - 39.2 °F 81% 29.53 in 5.6 mi Calm Calm - N/A   Unknown
10:30 PM 44.6 °F - 39.2 °F 81% 29.53 in 5.6 mi Calm Calm - N/A   Unknown
11:00 PM 42.8 °F - 39.2 °F 87% 29.53 in 4.3 mi Calm Calm - N/A   Unknown
11:30 PM 41.0 °F - 37.4 °F 87% 29.53 in 5.0 mi Calm Calm - N/A   Unknown